EW7512 Athens GR current weather conditions

sailwx.info

Wind from 019

Air temperature 9.4° C
Dewpoint 8.5° C

Last reported at 2019-Dec-08 02:01 UTC.
Time now 2019-Dec-08 03:15 UTC

Location: N 38°09' E 023°52'.
View on Google Maps.

See reports from other nearby stations

  
Tides and Currents Weather Stations Pressure Air Temp Water Temp Dewpoint Dewpoint Depression Visibility Wind Speed Wind Dir Waves Ship Positions
date/time (UTC)wind fromknots sea level pressurealtimeterstation pressurevisibilityair tempwater tempwave heightnotes
2019-Dec-08 02:01 019 9.4
2019-Dec-08 01:45 018 9.4
2019-Dec-08 01:31 017 9.4
2019-Dec-08 01:16 017 9.4
2019-Dec-08 01:01 018 9.4
2019-Dec-08 00:45 017 9.4
2019-Dec-08 00:30 017 9.4
2019-Dec-08 00:15 017 9.4
2019-Dec-08 00:00 018 9.4
2019-Dec-07 23:45 018 9.4
2019-Dec-07 23:30 040 9.4
2019-Dec-07 23:15 040 10.0
2019-Dec-07 23:00 042 10.0
2019-Dec-07 22:45 049 10.0
2019-Dec-07 22:30 049 10.0
2019-Dec-07 22:15 053 10.0
2019-Dec-07 22:00 053 10.0
2019-Dec-07 21:45 053 9.4
2019-Dec-07 21:30 072 9.4
2019-Dec-07 21:15 073 10.0
2019-Dec-07 21:00 074 10.0
2019-Dec-07 20:45 090 10.0
2019-Dec-07 20:30 090 10.0
2019-Dec-07 20:15 090 10.6
2019-Dec-07 20:00 090 10.6
2019-Dec-07 19:45 090 10.6
2019-Dec-07 19:31 090 10.6
2019-Dec-07 19:15 091 10.6
2019-Dec-07 19:00 090 10.6
2019-Dec-07 18:45 090 10.6
2019-Dec-07 18:30 091 10.6
2019-Dec-07 18:15 091 11.1
2019-Dec-07 18:00 091 11.1
2019-Dec-07 17:45 088 11.1
2019-Dec-07 17:30 082 11.1
2019-Dec-07 17:15 082 11.1
2019-Dec-07 17:00 082 11.1
2019-Dec-07 16:45 082 11.7
2019-Dec-07 16:31 082 11.7
2019-Dec-07 16:16 082 11.7
2019-Dec-07 16:01 082 11.7
2019-Dec-07 15:47 083 12.2
2019-Dec-07 15:32 082 12.2
2019-Dec-07 15:16 082 12.8
2019-Dec-07 15:02 082 12.8
2019-Dec-07 14:46 083 13.3
2019-Dec-07 14:31 083 13.3
2019-Dec-07 14:16 084 13.3
2019-Dec-07 14:02 084 13.9
2019-Dec-07 13:47 084 13.9
2019-Dec-07 13:31 084 14.4
2019-Dec-07 13:16 084 14.4
2019-Dec-07 13:01 050 14.4
2019-Dec-07 12:46 049 15.0
2019-Dec-07 12:31 046 15.0
2019-Dec-07 12:16 046 15.0
2019-Dec-07 12:01 050 15.0
2019-Dec-07 11:47 187 15.0
2019-Dec-07 11:32 215 15.0
2019-Dec-07 11:16 217 15.0
2019-Dec-07 11:01 231 14.4
2019-Dec-07 10:47 194 14.4
2019-Dec-07 10:31 140 14.4
2019-Dec-07 10:15 142 13.9
2019-Dec-07 10:02 138 13.3
2019-Dec-07 09:45 338 12.8
2019-Dec-07 09:30 337 12.8
2019-Dec-07 09:16 326 12.2
2019-Dec-07 09:00 326 12.2
2019-Dec-07 08:45 326 11.7
2019-Dec-07 08:30 327 11.7
2019-Dec-07 08:15 326 11.7
2019-Dec-07 08:00 326 11.1
2019-Dec-07 07:45 325 11.1
2019-Dec-07 07:17 325 10.0
2019-Dec-07 07:02 325 10.0
2019-Dec-07 06:46 325 9.4
2019-Dec-07 06:31 326 9.4
2019-Dec-07 06:15 325 8.9
2019-Dec-07 06:01 325 8.9
2019-Dec-07 05:46 325 8.3
2019-Dec-07 05:31 326 8.3
2019-Dec-07 05:16 326 8.3
2019-Dec-07 05:01 326 8.3
2019-Dec-07 04:46 326 8.3
2019-Dec-07 04:31 326 8.3
2019-Dec-07 04:17 325 8.3
2019-Dec-07 04:00 325 8.3
2019-Dec-07 03:46 325 8.3
2019-Dec-07 03:31 326 8.3
2019-Dec-07 03:16 325 8.3
2019-Dec-07 03:00 326 8.3
2019-Dec-07 02:45 325 8.3
2019-Dec-07 02:30 325 8.3
2019-Dec-07 02:16 325 8.3
2019-Dec-07 02:01 326 8.3
2019-Dec-07 01:45 326 8.3
2019-Dec-07 01:30 326 8.3
2019-Dec-07 01:15 325 8.3
2019-Dec-07 01:00 325 8.3
2019-Dec-07 00:45 325 8.3
2019-Dec-07 00:30 325 8.3
2019-Dec-07 00:15 325 8.3
2019-Dec-07 00:00 325 8.3
2019-Dec-06 23:45 325 8.3
2019-Dec-06 23:30 326 7.8
2019-Dec-06 23:17 325 7.8
2019-Dec-06 23:01 326 7.8
2019-Dec-06 22:47 325 7.8
2019-Dec-06 22:31 325 7.8
2019-Dec-06 22:16 326 7.2
2019-Dec-06 22:02 326 7.2
2019-Dec-06 21:46 325 7.2
2019-Dec-06 21:32 325 7.2
2019-Dec-06 21:01 325 6.7
2019-Dec-06 20:45 325 6.7
2019-Dec-06 20:32 326 6.7
2019-Dec-06 20:16 325 6.7
2019-Dec-06 20:01 325 7.2
2019-Dec-06 19:46 326 7.2
2019-Dec-06 19:30 325 7.2
2019-Dec-06 19:15 325 7.2
2019-Dec-06 19:02 325 7.2
2019-Dec-06 18:46 325 7.2
2019-Dec-06 18:31 325 7.2
2019-Dec-06 18:15 325 7.2
2019-Dec-06 18:01 325 7.2
2019-Dec-06 17:45 326 7.2
2019-Dec-06 17:31 325 7.8
2019-Dec-06 17:16 325 7.8
2019-Dec-06 17:01 326 7.8
2019-Dec-06 16:46 326 7.8
2019-Dec-06 16:30 325 7.8
2019-Dec-06 16:16 325 8.3
2019-Dec-06 16:00 325 8.3
2019-Dec-06 15:45 326 8.9
2019-Dec-06 15:31 325 8.9
2019-Dec-06 15:15 325 9.4
2019-Dec-06 15:00 325 9.4
2019-Dec-06 14:45 325 10.0
2019-Dec-06 14:30 326 10.0
2019-Dec-06 14:15 326 10.0
2019-Dec-06 14:01 326 10.0
2019-Dec-06 13:45 325 10.0
2019-Dec-06 13:30 325 10.0
2019-Dec-06 13:16 323 10.6
2019-Dec-06 13:00 326 10.6
2019-Dec-06 12:45 005 10.6
2019-Dec-06 12:30 025 11.1
2019-Dec-06 12:15 355 11.1
2019-Dec-06 12:00 343 11.1
2019-Dec-06 11:45 009 10.6
2019-Dec-06 11:30 005 10.6
2019-Dec-06 11:15 355 10.6
2019-Dec-06 11:02 019 10.6
2019-Dec-06 10:46 018 10.6
2019-Dec-06 10:32 005 10.6
2019-Dec-06 10:17 342 10.0
2019-Dec-06 10:01 005 10.0
2019-Dec-06 09:46 337 10.0
2019-Dec-06 09:31 026 9.4
2019-Dec-06 09:16 069 9.4
2019-Dec-06 09:02 355 8.9
2019-Dec-06 08:45 024 8.9
2019-Dec-06 08:31 017 8.9
2019-Dec-06 08:16 347 8.3
2019-Dec-06 08:01 010 8.3
2019-Dec-06 07:46 019 7.8
2019-Dec-06 07:30 013 7.2
2019-Dec-06 07:15 012 6.7
2019-Dec-06 07:00 013 6.1
2019-Dec-06 06:46 013 6.1
2019-Dec-06 06:30 013 5.6
2019-Dec-06 06:16 013 5.6
2019-Dec-06 06:00 013 5.6
2019-Dec-06 05:45 017 5.0
2019-Dec-06 05:30 021 5.0
2019-Dec-06 05:16 022 5.0
2019-Dec-06 05:00 021 5.0
2019-Dec-06 04:45 022 5.0
2019-Dec-06 04:31 022 5.0
2019-Dec-06 04:15 022 5.0
2019-Dec-06 04:01 022 5.0
2019-Dec-06 03:45 022 5.0
2019-Dec-06 03:30 021 5.0
2019-Dec-06 03:15 021 5.0
2019-Dec-06 03:00 022 5.0